sat.trackr.live / text

‹ back to catalog

STARLINK-6319

NORAD 56532 · 2023-065AF

PAYLOAD ACTIVE UNKNOWN

§ Identity

Operator
Country
US
Launch date
2023-05-14
Launch site
AFETR
Launch vehicle
Mass (kg)
RCS (m²)

Purposes: comms

External: N2YO · Heavens-Above · Gunter

§ Orbital elements

Epoch: 2026-05-24T23:48:47.441664Z

Period
94.27 min
Inclination
43.0022°
Eccentricity
0.0000986
Mean motion
15.27576257 rev/d
Perigee alt
482.4 km
Apogee alt
483.7 km
Semi-major
6,861.2 km
B*
1.0792e-5
RAAN
127.3172°
Arg perigee
282.6814°
Mean anomaly
77.3927°
Rev number
16,843

§ Raw data

STARLINK-63191 56532U 23065AF  26144.99221576  .00000035  00000+0  10792-4 0  99952 56532  43.0022 127.3172 0000986 282.6814  77.3927 15.27576257168435

JSON: /api/v1/satellites/56532 · /tle

For live sub-satellite position, see the globe view (requires WebGL).

§ Visibility from observer

Set your observer location to see the next 7 days of passes ≥ 10°. The values pass through the URL so the page stays shareable.

No JS? Fill the form by hand. The geolocation button needs JavaScript.